Tracking 30166 objects as of 22-Jan-2025
HD Live streaming from Space Station
objects crossing your sky now

GLOBALSTAR M051

Track GLOBALSTAR M051 now!
10-day predictions
GLOBALSTAR M051 is classified as:


NORAD ID: 25853
Int'l Code: 1999-037C
Perigee: 1,957.0 km
Apogee: 1,958.3 km
Inclination: 52.0 °
Period: 126.1 minutes
Semi major axis: 8328 km
RCS: 2.464 m2 (large)
Launch date: July 10, 1999
Source: Globalstar (GLOB)
Launch site: AIR FORCE EASTERN TEST RANGE (AFETR)
Your satellite tracking list
Your tracking list is empty




NASA's NSSDC Master Catalog

Two Line Element Set (TLE):
1 25853U 99037C   25021.38340042 -.00000061  00000-0  27779-3 0  9998
2 25853  51.9813  35.0378 0000749 299.4212  60.6524 11.42200437115618
Source of the keplerian elements: AFSPC